カタログに戻る

SL-16 DEB

運用中VLEO
NORAD 22571·DEBRIS·🇷🇺 Russia

打ち上げ Dec 25, 1992 から Baikonur Cosmodrome

Loading…

次のパス (今後24時間)

TLE

最新Source: Space-Track

元期: Sep 13, 2026, 23:13 UTC

1 22571U 92093HT  26256.96795673  .00104415  00000-0  52938-2 0  9997
2 22571  71.3231  95.4435 0022937  48.0618 312.2510 15.16180105718756

AllMySatでSL-16 DEBをリアルタイム追跡

Download on the App Store